Springfield, IL

8:05 PM CST on January 21, 2017 (GMT -0600)
Springfield

Weather History for KSPI - February, 2014

Change the Weather History Date:

Sunday, February 9, 2014

  Actual Average Record
Temperature  
Mean Temperature 15 °F 29 °F  
Max Temperature 24 °F 38 °F 66 °F (1943)
Min Temperature 6 °F 21 °F -21 °F (1899)
Degree Days  
Heating Degree Days 50 36  
Month to date heating degree days 469 329  
Since 1 July heating degree days 4165 3655  
Cooling Degree Days 0 0  
Month to date cooling degree days 0 0  
Year to date cooling degree days 0 0  
Moisture  
Dew Point 12 °F    
Average Humidity 73    
Maximum Humidity 84    
Minimum Humidity 61    
Precipitation  
Precipitation 0.03 in 0.06 in 1.34 in (1966)
Month to date precipitation 1.31 0.51  
Year to date precipitation 3.55 2.33  
Snow  
Snow 0.30 in 0.20 in 3.60 in (1942)
Month to date snowfall 8.4 1.9  
Since 1 July snowfall 34.7 14.5  
Snow Depth 6.00 in    
Sea Level Pressure  
Sea Level Pressure 30.24 in    
Wind  
Wind Speed 9 mph (NW)    
Max Wind Speed 16 mph    
Max Gust Speed 21 mph    
Visibility 8 miles    
Events Snow    
T = Trace of Precipitation, MM = Missing Value Source: NWS Daily Summary

Daily Weather History Graph

Daily Weather History Graph

Search for Another Location

Airport or City:

Trip Planner

Search our weather history database for the weather conditions in past years. The results will help you decide how hot, cold, wet, or windy it might be!

Date:

Astronomy

Feb. 09, 2014 Rise Set
Actual Time 6:58 AM CST 5:27 PM CST
Civil Twilight 6:30 AM CST 5:55 PM CST
Nautical Twilight 5:58 AM CST 6:27 PM CST
Astronomical Twilight 5:27 AM CST 6:59 PM CST
Moon 1:08 PM CST (2/9) 3:03 AM CST (2/9)
Length of Visible Light 11h 25m
Length of Day
10h 29m
Waxing Gibbous, 77% of the Moon is Illuminated
Feb 9
Waxing Gibbous
Feb 14
Full
Feb 22
Last Quarter
Mar 1
New
Mar 8
First Quarter

Hourly Weather History & Observations

Time (CST) Temp. Windchill Dew Point Humidity Pressure Visibility Wind Dir Wind Speed Gust Speed Precip Events Conditions
12:52 AM 23.0 °F 18.4 °F 17.1 °F 78% 30.19 in 10.0 mi WSW 3.5 mph - N/A   Overcast
1:52 AM 24.1 °F - 17.1 °F 75% 30.17 in 10.0 mi Calm Calm - N/A   Overcast
2:52 AM 23.0 °F - 17.1 °F 78% 30.15 in 9.0 mi Calm Calm - N/A   Overcast
3:52 AM 23.0 °F 17.0 °F 18.0 °F 81% 30.18 in 2.5 mi West 4.6 mph - 0.00 in Snow Light Snow
4:06 AM 23.0 °F 15.8 °F 17.6 °F 80% 30.16 in 4.0 mi WNW 5.8 mph - 0.00 in Snow Light Snow
4:29 AM 23.0 °F 13.1 °F 17.6 °F 80% 30.17 in 5.0 mi NW 9.2 mph - 0.00 in Snow Light Snow
4:44 AM 23.0 °F 12.4 °F 17.6 °F 80% 30.17 in 6.0 mi NW 10.4 mph - 0.00 in Snow Light Snow
4:52 AM 23.0 °F 13.1 °F 18.0 °F 81% 30.19 in 4.0 mi NNW 9.2 mph - 0.00 in Snow Light Snow
5:02 AM 21.2 °F 11.7 °F 17.6 °F 86% 30.17 in 2.0 mi NNW 8.1 mph - 0.01 in Snow Light Snow
5:23 AM 21.2 °F 13.6 °F 17.6 °F 86% 30.16 in 1.8 mi NNW 5.8 mph - 0.01 in Snow Light Snow
5:36 AM 21.2 °F 12.6 °F 17.6 °F 86% 30.16 in 2.5 mi NW 6.9 mph - 0.01 in Snow Light Snow
5:44 AM 21.2 °F 12.6 °F 17.6 °F 86% 30.16 in 3.0 mi NNW 6.9 mph - 0.01 in Snow Light Snow
5:52 AM 21.0 °F 10.6 °F 16.0 °F 81% 30.20 in 5.0 mi NW 9.2 mph - 0.01 in   Haze
6:52 AM 19.0 °F 10.0 °F 15.1 °F 85% 30.20 in 7.0 mi NW 6.9 mph - N/A   Mostly Cloudy
7:05 AM 19.4 °F 8.6 °F 15.8 °F 86% 30.18 in 7.0 mi NNW 9.2 mph - N/A   Mostly Cloudy
7:52 AM 19.9 °F 9.3 °F 15.1 °F 81% 30.24 in 6.0 mi NW 9.2 mph - N/A   Haze
8:28 AM 19.4 °F 6.6 °F 12.2 °F 74% 30.21 in 8.0 mi NW 12.7 mph - N/A   Scattered Clouds
8:52 AM 19.9 °F 6.7 °F 12.9 °F 74% 30.24 in 8.0 mi NW 13.8 mph - N/A   Clear
9:52 AM 19.0 °F 8.2 °F 10.9 °F 71% 30.25 in 8.0 mi North 9.2 mph - N/A   Scattered Clouds
10:52 AM 19.0 °F 7.5 °F 9.0 °F 65% 30.26 in 10.0 mi NNW 10.4 mph - N/A   Clear
11:52 AM 19.9 °F 7.9 °F 8.1 °F 60% 30.26 in 10.0 mi NNW 11.5 mph - N/A   Clear
12:52 PM 19.0 °F 7.5 °F 8.1 °F 62% 30.25 in 10.0 mi WNW 10.4 mph - N/A   Partly Cloudy
1:52 PM 19.9 °F 8.6 °F 8.1 °F 60% 30.25 in 10.0 mi WNW 10.4 mph - N/A   Clear
2:52 PM 19.0 °F 6.1 °F 8.1 °F 62% 30.29 in 10.0 mi WNW 12.7 mph - N/A   Overcast
3:52 PM 19.0 °F 7.5 °F 8.1 °F 62% 30.30 in 10.0 mi NW 10.4 mph - N/A   Mostly Cloudy
4:52 PM 18.0 °F 5.4 °F 7.0 °F 62% 30.30 in 10.0 mi NNW 11.5 mph - N/A   Mostly Cloudy
5:52 PM 18.0 °F 8.7 °F 7.0 °F 62% 30.32 in 10.0 mi NW 6.9 mph - N/A   Overcast
6:52 PM 17.1 °F 7.6 °F 7.0 °F 65% 30.35 in 10.0 mi NW 6.9 mph - N/A   Scattered Clouds
7:52 PM 16.0 °F 6.3 °F 7.0 °F 68% 30.35 in 10.0 mi NW 6.9 mph - N/A   Overcast
8:52 PM 14.0 °F -0.2 °F 3.0 °F 62% 30.37 in 10.0 mi NNW 12.7 mph - N/A   Overcast
9:52 PM 10.9 °F -4.7 °F 1.0 °F 64% 30.38 in 10.0 mi NW 13.8 mph - N/A   Overcast
10:52 PM 8.1 °F -8.4 °F -2.0 °F 64% 30.39 in 10.0 mi NW 13.8 mph - N/A   Clear
11:52 PM 6.1 °F -10.2 °F -4.0 °F 63% 30.40 in 10.0 mi NW 12.7 mph - N/A   Clear